Home   Weather   Buxtehude   Past weeks

Flag for Germany Past Weather in Buxtehude, Lower Saxony, Germany — Yesterday and Last 2 Weeks

Now
46 °F

Scattered clouds.


Feels Like: 45 °F
Forecast: 35 / 55 °F
Wind: 3 mph from North

Location: Hamburg-Fuhlsbuettel

Current Time: Apr 29, 2017 at 7:57:25 pm

Latest Report: Apr 29, 2017 at 7:20 pm


Visibility: N/A

Pressure: 30.07 "Hg

Humidity: 71%

Dew Point: 37 °F

Location of BuxtehudeLocation

Past Weather in Buxtehude — Graph

°F

Buxtehude Temperature Yesterday

Maximum temperature yesterday: 50 °F (at 2:20 pm)
Minimum temperature yesterday: 41 °F (at 5:20 am)
Average temperature yesterday: 45 °F

High & Low Weather Summary for the Past Weeks

 TemperatureHumidityPressure
High55 °F (Apr 21, 12:50 pm)100% (Apr 15, 7:50 am)30.63 "Hg (Apr 15, 7:50 am)
Low25 °F (Apr 19, 5:50 am)40% (Apr 20, 2:50 pm)29.56 "Hg (Apr 25, 7:20 am)
Average42 °F78%30.05 "Hg
* Reported Apr 14 6:20 pm — Apr 29 6:50 pm, Buxtehude, Weather by CustomWeather, © 2017

Note: Actual official high and low records may vary slightly from our data, if they occured in-between our weather recording intervals... More about our weather records

Advertising

Buxtehude Weather History for the Previous 24 Hours

Scroll right to see more
 ConditionsComfort  
Time TempWeatherWind HumidityBarometerVisibility
6:50 pm
Sat, Apr 29
46 °FScattered clouds.5 mph76%30.07 "HgN/A
6:20 pm46 °FScattered clouds.5 mph76%30.07 "HgN/A
5:50 pm46 °FScattered clouds.5 mph76%30.07 "HgN/A
5:20 pm48 °FScattered clouds.8 mph76%30.07 "HgN/A
4:50 pm45 °FSprinkles. Broken clouds.6 mph87%30.07 "HgN/A
4:20 pm48 °FSprinkles. Scattered clouds.13 mph66%30.04 "HgN/A
3:50 pm48 °FScattered showers. Passing clouds.7 mph71%30.04 "HgN/A
2:50 pm45 °FSprinkles. Broken clouds.16 mph76%30.04 "HgN/A
2:20 pm46 °FSprinkles. Broken clouds.15 mph71%30.04 "HgN/A
1:50 pm50 °FScattered showers. Broken clouds.12 mph58%30.01 "HgN/A
1:20 pm48 °FScattered showers. Scattered clouds.14 mph54%30.01 "HgN/A
12:50 pm48 °FScattered showers. Scattered clouds.13 mph58%30.01 "HgN/A
12:20 pm46 °FScattered showers. Partly sunny.9 mph66%30.01 "HgN/A
11:50 am46 °FScattered showers. Partly sunny.10 mph66%30.01 "HgN/A
11:20 am46 °FSprinkles. Partly sunny.8 mph66%30.01 "HgN/A
10:50 am46 °FSprinkles. Partly sunny.10 mph66%30.01 "HgN/A
9:50 am45 °FScattered clouds.8 mph71%30.01 "HgN/A
9:20 am45 °FScattered showers. Scattered clouds.9 mph81%29.98 "HgN/A
8:50 am43 °FScattered showers. Scattered clouds.9 mph81%29.98 "HgN/A
8:20 am43 °FPassing clouds.7 mph81%29.98 "HgN/A
7:50 am41 °FPassing clouds.7 mph87%29.98 "HgN/A
7:20 am39 °FScattered showers. Partly sunny.8 mph93%29.98 "HgN/A
6:50 am39 °FScattered showers. Scattered clouds.7 mph87%29.98 "HgN/A
6:20 am37 °FSprinkles. Partly sunny.5 mph93%29.98 "HgN/A
5:50 am37 °FSprinkles. Partly sunny.7 mph93%29.98 "HgN/A
5:20 am37 °FScattered showers. Partly cloudy.3 mph93%29.98 "HgN/A
4:50 am37 °FSprinkles. Partly cloudy.3 mph93%29.98 "HgN/A
4:20 am36 °FClear.5 mph93%29.95 "Hg10 mi
3:50 am34 °FClear.No wind100%29.95 "Hg10 mi
3:20 am36 °FPassing clouds.2 mph93%29.95 "HgN/A
2:50 am36 °FPassing clouds.6 mph100%29.95 "HgN/A
2:20 am37 °FPassing clouds.5 mph100%29.95 "HgN/A
1:50 am36 °FPassing clouds.5 mph93%29.95 "HgN/A
1:20 am37 °FPassing clouds.3 mph93%29.95 "HgN/A
12:50 am39 °FPassing clouds.5 mph87%29.95 "HgN/A
12:20 am39 °FPassing clouds.5 mph93%29.95 "HgN/A
11:50 pm
Fri, Apr 28
41 °FPassing clouds.5 mph87%29.95 "HgN/A
10:50 pm43 °FPassing clouds.8 mph87%29.92 "HgN/A
10:20 pm45 °FPassing clouds.7 mph81%29.92 "HgN/A
9:50 pm45 °FPassing clouds.5 mph87%29.92 "HgN/A
9:20 pm45 °FScattered showers. Partly cloudy.5 mph87%29.92 "HgN/A
8:50 pm45 °FSprinkles. Partly cloudy.2 mph93%29.92 "HgN/A
8:20 pm45 °FSprinkles. Partly sunny.No wind87%29.92 "HgN/A
7:50 pm46 °FSprinkles. Broken clouds.2 mph76%29.89 "HgN/A
7:20 pm46 °FSprinkles. Broken clouds.6 mph82%29.89 "HgN/A
Weather by CustomWeather, © 2017

See weather overviewHow to use our weather pages